Weather in Saga

Japan     33°19′54″N   130°15′40″E
temp.,
°C
wind,
m/s
gust,
m/s
humid.,
%
clouds,
%
prec.,
mm/h
press.,
hPa
HPBL,
m
28 november, sun
sun2800:00+9ne37531 0.0 1034447
03:00+8nne25550 0.0 1033206
06:00+7nne24580 0.0 1033165
09:00+10ne25493 0.0 1034489
12:00+13e33333 0.0 1033841
15:00+14se222818 0.0 1030995
18:00+12w11365 0.0 103140
21:00+10ne11425 0.0 103245
29 november, mon
mon2900:00+9n015399 0.0 103134
03:00+8n015699 0.0 103036
06:00+8nne116035 0.0 103035
09:00+10se115716 0.0 1030235
12:00+14sse22527 0.0 1029694
15:00+14se11500 0.0 1026697
18:00+12wsw01570 0.0 102735
21:00+11n00560 0.0 102723
30 november, tue
tue3000:00+10ene115436 0.0 102537
03:00+10e1153100 0.0 102360
06:00+10se2464100 0.0 1021122
09:00+12se275898 0.0 1017365
12:00+17s61563100 0.0 10131315
15:00+15ssw41292100 4.3 10101201
18:00+13sw1492100 21.1 1012300
21:00+12wnw71077100 23.9 10141139
1 december, wed
wed100:00+9wnw8135713 0.0 10161606
03:00+7wnw6126796 0.1 10171521
06:00+7wnw7145729 0.1 10181763
09:00+8nw7125283 0.1 10201896
12:00+9wnw8124875 0.0 10201942
15:00+9wnw7135063 0.0 10191887
18:00+8nw6115450 0.0 10201621
21:00+7nnw24588 0.0 1022384
2 december, thu
thu200:00+6nw11615 0.0 102284
03:00+6w116497 0.0 102270
06:00+7wnw266192 0.0 1021648
09:00+9wnw4755100 0.0 10221455
12:00+10wnw4750100 0.0 10211679
15:00+11wnw3651100 0.0 10201605
18:00+10wsw246399 0.1 1020456
21:00+10sw126876 0.1 1021106